[[{"header":{"parameterUnit":"m.s-1","parameterCategory":2,"la1":30.2991,"la2":30.254,"lo1":-89.0895,"lo2":-89.0444,"dy":0.0017,"dx":0.0017,"nx":28,"ny":28,"refTime":"2023-04-01T21:00:00:Z","depth":"0","parameterNumber":2,"parameterNumberName":"U-component_of_CURRENTS"},"data":[0,0,0,0,0,0,0,0,0,0,0,0,0,0,0,0,0,0,0,0,0,0,0,0,0,0,0,0,0,0,0,0,0,0,0,0,0,0,0,0,0,0,0,0,0,0,0,0,0,0,0,0,0,0,0,0,0,0,-0.2806,-0.2805,0,-0.2747,-0.2746,-0.2745,-0.2719,-0.2719,-0.272,-0.272,-0.2614,-0.2611,-0.2608,0,0,0,0,0,0,0,0,0,0,0,0,0,-0.2833,-0.2833,-0.2806,-0.2805,-0.2805,-0.2747,-0.2746,-0.2745,-0.2719,-0.2719,-0.272,-0.272,-0.2615,-0.2611,-0.2607,0,0,0,0,0,0,0,0,0,0,0,0,0,-0.28,-0.2833,-0.2806,-0.2787,-0.2785,-0.2748,-0.2746,-0.2745,-0.2719,-0.2719,-0.272,-0.272,-0.2616,-0.2611,-0.2607,-0.2568,0,0,-0.2592,-0.259,0,0,0,0,0,0,0,0,-0.2802,-0.2799,-0.279,-0.2788,-0.2786,-0.2743,-0.2717,-0.2684,-0.2719,-0.2741,-0.272,-0.272,-0.2654,-0.2646,-0.2631,-0.2563,-0.2558,-0.2592,-0.2589,-0.2587,-0.2586,0,0,0,0,0,0,0,-0.2804,-0.2801,-0.2779,-0.279,-0.2787,-0.2761,-0.2757,-0.2711,-0.2692,-0.2739,-0.2737,-0.2736,-0.2652,-0.2635,-0.2628,-0.2557,-0.2592,-0.2588,-0.2585,-0.2583,-0.2477,-0.2477,0,0,0,0,0,0,-0.282,-0.2803,-0.2781,-0.2778,-0.2799,-0.276,-0.2756,-0.2754,-0.2694,-0.2686,-0.2735,-0.2735,-0.2643,-0.2634,-0.2624,-0.2601,-0.2587,-0.2583,-0.258,-0.2477,-0.2477,-0.2477,0,0,0,0,0,0,-0.2821,-0.2819,-0.2784,-0.2792,-0.2786,-0.276,-0.2758,-0.2753,-0.2746,-0.2692,-0.2683,-0.2735,-0.2643,-0.2631,-0.2595,-0.2596,-0.2581,-0.2576,-0.2477,-0.2477,-0.2477,-0.2537,0,0,0,0,0,0,-0.2822,-0.2819,-0.2829,-0.2793,-0.2786,-0.2785,-0.2758,-0.2751,-0.2745,-0.2743,-0.2689,-0.2679,-0.2643,-0.2602,-0.259,-0.2589,-0.2573,-0.2477,-0.2477,-0.2477,-0.2535,-0.2539,-0.2543,0,0,0,0,0,-0.2823,-0.2844,-0.2829,-0.2827,-0.2798,-0.2786,-0.278,-0.2761,-0.2744,-0.2753,-0.2708,-0.2681,-0.2594,-0.2598,-0.2584,-0.2582,-0.2477,-0.2477,-0.2477,-0.2534,-0.2539,-0.2543,0,0,0,0,0,0,-0.2862,-0.2842,-0.2826,-0.2839,-0.2821,-0.2783,-0.279,-0.2767,-0.2737,-0.2736,-0.2677,-0.2664,-0.2632,-0.2599,-0.2605,-0.2552,-0.2532,-0.2529,-0.258,-0.2584,-0.2588,-0.261,-0.2569,0,0,0,0,0,-0.2874,-0.2883,-0.2854,-0.2864,-0.2859,-0.2821,-0.2814,-0.2801,-0.2769,-0.2757,-0.2713,-0.2665,-0.2618,-0.2597,-0.2555,-0.2524,-0.2506,-0.2514,-0.2518,-0.2521,-0.253,-0.2494,-0.2496,-0.2477,-0.2477,-0.2477,0,0,-0.2889,-0.2881,-0.2885,-0.2873,-0.2854,-0.2859,-0.2818,-0.282,-0.2816,-0.2748,-0.2727,-0.2676,-0.2612,-0.258,-0.2563,-0.2554,-0.2522,-0.2522,-0.2525,-0.2532,-0.2494,-0.2496,-0.2498,-0.2477,-0.2477,-0.2477,0,0,-0.2935,-0.2919,-0.2945,-0.2937,-0.2926,-0.2898,-0.2902,-0.2869,-0.2848,-0.2821,-0.2766,-0.2719,-0.2655,-0.2607,-0.2573,-0.257,-0.2542,-0.2558,-0.2594,-0.2559,-0.2561,-0.2562,-0.2565,-0.2566,-0.2561,-0.2561,-0.2562,0,-0.2954,-0.2985,-0.2951,-0.2974,-0.298,-0.292,-0.295,-0.2911,-0.2869,-0.2851,-0.2831,-0.2721,-0.2666,-0.2611,-0.2609,-0.2579,-0.257,-0.2583,-0.2565,-0.2566,-0.2566,-0.2569,-0.2569,-0.2564,-0.2564,-0.2564,-0.2563,0,-0.3016,-0.3044,-0.306,-0.3065,-0.3061,-0.308,-0.303,-0.301,-0.2969,-0.2927,-0.2871,-0.2786,-0.2728,-0.2692,-0.2646,-0.2612,-0.2611,-0.2575,-0.2559,-0.2571,-0.2574,-0.2573,-0.2568,-0.2567,-0.2567,-0.2566,0,0,-0.3045,-0.3098,-0.3103,-0.3135,-0.312,-0.3124,-0.3106,-0.3078,-0.3067,-0.2994,-0.2975,-0.2866,-0.2817,-0.2775,-0.2702,-0.2657,-0.2646,-0.2623,-0.2619,-0.2636,-0.2603,-0.2628,-0.2629,-0.2607,-0.2607,-0.2607,-0.2614,0,-0.3105,-0.3195,-0.3191,-0.3253,-0.3291,-0.3242,-0.3235,-0.3194,-0.3135,-0.3093,-0.298,-0.2931,-0.2847,-0.2821,-0.276,-0.2665,-0.2642,-0.2649,-0.2579,-0.2578,-0.2605,-0.2627,-0.2479,-0.2474,-0.2613,-0.2613,-0.2612,0,-0.3156,-0.322,-0.3311,-0.337,-0.3379,-0.339,-0.3373,-0.3359,-0.3268,-0.3228,-0.3144,-0.3057,-0.296,-0.2895,-0.2758,-0.2769,-0.2704,-0.2632,-0.263,-0.2631,-0.26,-0.2477,-0.2467,-0.2357,-0.2611,-0.2611,-0.2611,0,-0.32,-0.3291,-0.3377,-0.3396,-0.3443,-0.3457,-0.3457,-0.3397,-0.3377,-0.3302,-0.3285,-0.3158,-0.3099,-0.2979,-0.2823,-0.2799,-0.269,-0.2639,-0.2609,-0.2612,-0.246,-0.245,-0.2339,-0.2576,-0.2576,-0.2576,-0.2576,0,-0.3261,-0.3324,-0.3406,-0.3451,-0.3515,-0.3526,-0.3547,-0.3521,-0.3481,-0.3451,-0.3356,-0.3309,-0.3117,-0.3015,-0.2875,-0.2749,-0.2738,-0.2632,-0.2612,-0.2481,-0.2473,-0.2351,-0.233,-0.2576,-0.2576,-0.2576,-0.2576,0,-0.3275,-0.3346,-0.3431,-0.3516,-0.3535,-0.3565,-0.3586,-0.3599,-0.3576,-0.3533,-0.3518,-0.342,-0.3295,-0.3122,-0.2937,-0.2836,-0.2628,-0.2667,-0.2552,-0.252,-0.24,-0.239,-0.232,-0.2274,-0.2641,-0.2642,-0.2642,0,-0.3293,-0.3345,-0.3449,-0.3484,-0.3517,-0.3566,-0.3597,-0.3616,-0.3619,-0.3581,-0.3569,-0.3476,-0.3329,-0.3116,-0.2931,-0.2738,-0.264,-0.2551,-0.2472,-0.2394,-0.2365,-0.2358,-0.2323,-0.2296,-0.2294,-0.2292,-0.229,0,-0.3292,-0.332,-0.3384,-0.3408,-0.3463,-0.3493,-0.3537,-0.3545,-0.3554,-0.3509,-0.3391,-0.3276,-0.3193,-0.2904,-0.2768,-0.264,-0.2453,-0.2513,-0.2413,-0.2093,-0.2087,-0.2033,-0.2334,-0.2273,-0.2275,-0.2276,-0.2277,-0.2278,-0.3239,-0.3228,-0.3237,-0.3246,-0.3303,-0.3239,-0.3169,-0.323,-0.3116,-0.2934,-0.3076,-0.2808,-0.2752,-0.2511,-0.2493,-0.2313,-0.2365,-0.2128,-0.2128,-0.2135,-0.2067,-0.2386,-0.2321,-0.2323,-0.2325,-0.2326,-0.2327,0,-0.3021,-0.2999,-0.3043,-0.2965,-0.2899,-0.2984,-0.2975,-0.2835,-0.2607,-0.2569,-0.2395,-0.2141,-0.1984,-0.201,-0.1912,-0.1856,-0.1847,-0.1791,-0.167,-0.1659,-0.1883,-0.1841,-0.1688,-0.1688,-0.1688,-0.1688,-0.1688,-0.1688,-0.2879,-0.2758,-0.2739,-0.2485,-0.2465,-0.2213,-0.213,-0.2023,-0.1921,-0.159,-0.1423,-0.1396,-0.146,-0.1497,-0.1457,-0.1457,-0.1408,-0.1388,-0.1452,-0.1508,-0.1536,-0.1563,-0.1513,-0.1294,-0.1294,-0.1126,-0.1124,-0.1123]},{"header":{"parameterUnit":"m.s-1","parameterCategory":2,"la1":30.2991,"la2":30.254,"lo1":-89.0895,"lo2":-89.0444,"dy":0.0017,"dx":0.0017,"nx":28,"ny":28,"refTime":"2023-04-01T21:00:00:Z","depth":"0","parameterNumber":3,"parameterNumberName":"V-component_of_CURRENTS"},"data":[0,0,0,0,0,0,0,0,0,0,0,0,0,0,0,0,0,0,0,0,0,0,0,0,0,0,0,0,0,0,0,0,0,0,0,0,0,0,0,0,0,0,0,0,0,0,0,0,0,0,0,0,0,0,0,0,0,0,0.0392,0.0392,0,0.0474,0.0475,0.0476,0.0489,0.0488,0.0488,0.0487,0.0548,0.055,0.0552,0,0,0,0,0,0,0,0,0,0,0,0,0,0.0287,0.0288,0.0392,0.0393,0.0394,0.0474,0.0475,0.0476,0.0489,0.0488,0.0488,0.0487,0.0547,0.055,0.0553,0,0,0,0,0,0,0,0,0,0,0,0,0,0.0347,0.0289,0.0391,0.041,0.0412,0.0474,0.0475,0.0477,0.049,0.0488,0.0487,0.0486,0.0546,0.055,0.0553,0.0597,0,0,0.0564,0.0565,0,0,0,0,0,0,0,0,0.0344,0.0351,0.0406,0.0408,0.0411,0.047,0.046,0.0516,0.049,0.0461,0.0487,0.0486,0.052,0.0526,0.0545,0.06,0.0603,0.0564,0.0566,0.0568,0.0568,0,0,0,0,0,0,0,0.0339,0.0348,0.0425,0.0407,0.041,0.0428,0.0435,0.0471,0.0496,0.0463,0.0464,0.0473,0.0521,0.0541,0.0546,0.0603,0.0564,0.0567,0.0569,0.057,0.0685,0.0686,0,0,0,0,0,0,0.0328,0.0344,0.0422,0.0427,0.0374,0.043,0.0438,0.0452,0.0496,0.0501,0.0474,0.0473,0.0536,0.0542,0.0548,0.0589,0.0567,0.0571,0.0573,0.0684,0.0685,0.0686,0,0,0,0,0,0,0.0326,0.0334,0.0419,0.0386,0.0398,0.0433,0.0449,0.0455,0.0473,0.0504,0.0509,0.0486,0.0535,0.0543,0.0582,0.0592,0.0572,0.0575,0.0683,0.0684,0.0685,0.068,0,0,0,0,0,0,0.0322,0.0333,0.0342,0.0386,0.04,0.0457,0.045,0.0457,0.048,0.048,0.0516,0.0521,0.0535,0.0577,0.0585,0.0596,0.0578,0.0681,0.0683,0.0685,0.0679,0.0681,0.0683,0,0,0,0,0,0.0318,0.0334,0.0342,0.0351,0.041,0.0458,0.0467,0.0488,0.0481,0.0498,0.0518,0.052,0.0594,0.0581,0.0591,0.0603,0.0681,0.0683,0.0685,0.0678,0.0681,0.0683,0,0,0,0,0,0,0.0285,0.0339,0.0347,0.0376,0.0414,0.046,0.0476,0.0491,0.0522,0.0518,0.0539,0.0546,0.058,0.0599,0.0584,0.0641,0.0635,0.0639,0.0627,0.063,0.0631,0.0617,0.0581,0,0,0,0,0,0.0284,0.0314,0.0361,0.0383,0.0401,0.0438,0.046,0.0477,0.051,0.0522,0.0549,0.0575,0.06,0.0618,0.0647,0.0687,0.0683,0.07,0.0702,0.0703,0.0699,0.0689,0.0689,0.0693,0.0693,0.0693,0,0,0.0274,0.0309,0.0323,0.0379,0.0407,0.044,0.0448,0.0484,0.0509,0.0525,0.0565,0.0585,0.0612,0.065,0.0667,0.0665,0.0705,0.0706,0.0707,0.0702,0.0691,0.069,0.069,0.0694,0.0694,0.0694,0,0,0.0269,0.0303,0.0323,0.0363,0.0412,0.0442,0.0451,0.0503,0.0521,0.0568,0.0576,0.0602,0.0655,0.0672,0.0686,0.072,0.0713,0.073,0.0732,0.0723,0.0721,0.072,0.0729,0.0728,0.0733,0.0733,0.0733,0,0.0245,0.0284,0.0335,0.0369,0.0395,0.044,0.0463,0.0502,0.0559,0.0571,0.0578,0.0638,0.0663,0.0693,0.0704,0.0723,0.0718,0.0718,0.0722,0.0721,0.072,0.0729,0.0728,0.0733,0.0733,0.0733,0.0733,0,0.0257,0.0291,0.0308,0.0365,0.0408,0.0435,0.0495,0.053,0.0555,0.0584,0.0621,0.0658,0.0685,0.0703,0.0717,0.0728,0.0728,0.072,0.0709,0.0719,0.0728,0.0728,0.0733,0.0733,0.0733,0.0733,0,0,0.0166,0.0288,0.0286,0.031,0.0405,0.0426,0.0489,0.0536,0.0546,0.0608,0.0618,0.0676,0.0684,0.07,0.072,0.0723,0.0723,0.0719,0.0719,0.0715,0.0709,0.0754,0.0758,0.0706,0.0706,0.0705,0.0723,0,0.014,0.0186,0.0271,0.0308,0.0328,0.0415,0.046,0.0517,0.056,0.0588,0.0631,0.0649,0.0687,0.0686,0.0702,0.0714,0.0719,0.072,0.0711,0.0711,0.0739,0.0758,0.0738,0.0755,0.0722,0.0722,0.0722,0,0.0094,0.0138,0.0164,0.026,0.0275,0.0309,0.0366,0.042,0.0493,0.0526,0.057,0.0605,0.0645,0.0654,0.0694,0.0689,0.0698,0.0708,0.0709,0.075,0.0756,0.0739,0.0755,0.083,0.0721,0.0722,0.0722,0,-0.0051,0.0051,0.0059,0.0093,0.0212,0.0232,0.0289,0.0373,0.04,0.0471,0.0481,0.0554,0.0567,0.0601,0.0674,0.0664,0.0708,0.0691,0.0744,0.0747,0.0729,0.0732,0.0803,0.0693,0.0693,0.0693,0.0693,0,-0.014,-0.0135,-0.0016,-0.0018,-0.0016,0.0117,0.0119,0.0193,0.0278,0.0312,0.0417,0.0453,0.0546,0.0607,0.0658,0.0727,0.0699,0.0749,0.0754,0.0732,0.0735,0.0798,0.0808,0.0694,0.0694,0.0694,0.0694,0,-0.0315,-0.0232,-0.0221,-0.0114,-0.0093,-0.0101,-0.0,0.0022,0.0118,0.0166,0.0186,0.0346,0.0461,0.0572,0.0647,0.0698,0.079,0.078,0.0771,0.0775,0.0886,0.0895,0.0937,0.0978,0.0824,0.0825,0.0827,0,-0.0397,-0.0414,-0.0342,-0.0344,-0.0305,-0.028,-0.0248,-0.0106,-0.0045,0.0116,0.0146,0.0277,0.0415,0.0579,0.0692,0.0805,0.0843,0.0835,0.0812,0.0903,0.0915,0.0916,0.0948,0.0787,0.0788,0.0788,0.0789,0,-0.0563,-0.0547,-0.0542,-0.0529,-0.0509,-0.0452,-0.037,-0.0342,-0.0136,-0.0023,0.0172,0.0288,0.0448,0.0613,0.0756,0.0813,0.0873,0.0848,0.0926,0.0887,0.0904,0.0943,0.0784,0.0793,0.0793,0.0792,0.0792,0.0792,-0.0707,-0.0745,-0.0721,-0.0697,-0.065,-0.0541,-0.0428,-0.029,-0.0117,0.0191,0.0193,0.046,0.0513,0.0737,0.0826,0.0958,0.0921,0.0965,0.0967,0.0962,0.1008,0.0885,0.0914,0.0915,0.0915,0.0915,0.0915,0,-0.0842,-0.0847,-0.0863,-0.077,-0.0658,-0.0595,-0.0414,-0.0215,0.0098,0.0283,0.0516,0.0662,0.0767,0.087,0.0972,0.1054,0.107,0.11,0.1081,0.1108,0.0981,0.0989,0.1056,0.1056,0.1056,0.1056,0.1056,0.1056,-0.0922,-0.0967,-0.0932,-0.0756,-0.0634,-0.0334,-0.016,0.0103,0.0321,0.0695,0.0918,0.1009,0.1011,0.1039,0.1155,0.1173,0.1248,0.1219,0.1295,0.1194,0.1181,0.1169,0.1184,0.129,0.129,0.1409,0.141,0.141]}],[{"header":{"parameterUnit":"m.s-1","parameterCategory":2,"la1":30.2991,"la2":30.254,"lo1":-89.0895,"lo2":-89.0444,"dy":0.0017,"dx":0.0017,"nx":28,"ny":28,"refTime":"2023-04-01T21:00:00:Z","depth":"2","parameterNumber":2,"parameterNumberName":"U-component_of_CURRENTS"},"data":[0,0,0,0,0,0,0,0,0,0,0,0,0,0,0,0,0,0,0,0,0,0,0,0,0,0,0,0,0,0,0,0,0,0,0,0,0,0,0,0,0,0,0,0,0,0,0,0,0,0,0,0,0,0,0,0,0,0,-0.1909,-0.1907,0,-0.1793,-0.1792,-0.1791,-0.183,-0.1832,-0.1833,-0.1835,-0.185,-0.1849,-0.1847,0,0,0,0,0,0,0,0,0,0,0,0,0,-0.1928,-0.193,-0.1909,-0.1907,-0.1905,-0.1793,-0.1792,-0.1791,-0.1829,-0.1832,-0.1834,-0.1836,-0.185,-0.1849,-0.1847,0,0,0,0,0,0,0,0,0,0,0,0,0,-0.1885,-0.1931,-0.1909,-0.1904,-0.1902,-0.1793,-0.1792,-0.1791,-0.1829,-0.1832,-0.1834,-0.1837,-0.1851,-0.1849,-0.1847,-0.1782,0,0,-0.1841,-0.184,0,0,0,0,0,0,0,0,-0.1888,-0.1886,-0.1907,-0.1904,-0.1902,-0.1821,-0.1803,-0.1792,-0.1828,-0.1865,-0.1835,-0.1838,-0.1845,-0.1844,-0.1826,-0.1783,-0.1783,-0.1841,-0.184,-0.1839,-0.1839,0,0,0,0,0,0,0,-0.1891,-0.1889,-0.1871,-0.1904,-0.1901,-0.1826,-0.1826,-0.18,-0.185,-0.1862,-0.1863,-0.1836,-0.1846,-0.1827,-0.1827,-0.1783,-0.1841,-0.1839,-0.1838,-0.1838,-0.1762,-0.1761,0,0,0,0,0,0,-0.1899,-0.1894,-0.1875,-0.1867,-0.1892,-0.1824,-0.1824,-0.1851,-0.1848,-0.1846,-0.1834,-0.1838,-0.1829,-0.1829,-0.1827,-0.1832,-0.1839,-0.1837,-0.1836,-0.1763,-0.1762,-0.1761,0,0,0,0,0,0,-0.1901,-0.1901,-0.1879,-0.1867,-0.1859,-0.1822,-0.1851,-0.1847,-0.1887,-0.1823,-0.1827,-0.1883,-0.1831,-0.183,-0.1834,-0.183,-0.1836,-0.1835,-0.1764,-0.1762,-0.1761,-0.1789,0,0,0,0,0,0,-0.1903,-0.1904,-0.1937,-0.187,-0.1859,-0.1869,-0.1847,-0.1843,-0.1858,-0.1865,-0.1865,-0.1866,-0.1833,-0.1837,-0.1832,-0.1828,-0.1833,-0.1765,-0.1763,-0.1762,-0.1789,-0.1788,-0.1788,0,0,0,0,0,-0.1905,-0.1943,-0.1941,-0.1938,-0.1906,-0.187,-0.1861,-0.1844,-0.1859,-0.189,-0.1869,-0.1869,-0.1823,-0.1835,-0.183,-0.1824,-0.1766,-0.1764,-0.1762,-0.1789,-0.1788,-0.1788,0,0,0,0,0,0,-0.1995,-0.1947,-0.1945,-0.1978,-0.1948,-0.1875,-0.1888,-0.1876,-0.1881,-0.1904,-0.1862,-0.186,-0.1858,-0.1836,-0.1851,-0.1795,-0.1792,-0.1789,-0.1814,-0.1814,-0.1813,-0.1813,-0.1832,0,0,0,0,0,-0.202,-0.2012,-0.198,-0.1994,-0.2005,-0.1958,-0.1946,-0.194,-0.1915,-0.1924,-0.1906,-0.1878,-0.183,-0.1827,-0.1795,-0.1772,-0.1779,-0.1761,-0.1761,-0.1761,-0.1755,-0.1741,-0.174,-0.1754,-0.1754,-0.1754,0,0,-0.2044,-0.2014,-0.2012,-0.2006,-0.1989,-0.1968,-0.1965,-0.1973,-0.194,-0.1921,-0.1909,-0.189,-0.1826,-0.1791,-0.1787,-0.1784,-0.177,-0.1759,-0.1759,-0.1752,-0.1739,-0.1738,-0.1737,-0.1753,-0.1753,-0.1754,0,0,-0.2061,-0.2093,-0.2096,-0.2081,-0.2061,-0.2014,-0.2035,-0.2009,-0.2012,-0.1993,-0.1945,-0.192,-0.1887,-0.1806,-0.1763,-0.1741,-0.1772,-0.1752,-0.1748,-0.1735,-0.1735,-0.1734,-0.1792,-0.1796,-0.1748,-0.1748,-0.1748,0,-0.2098,-0.2102,-0.2091,-0.2092,-0.2072,-0.2044,-0.2052,-0.2016,-0.1981,-0.1985,-0.2012,-0.192,-0.1873,-0.1772,-0.1751,-0.1738,-0.1777,-0.1758,-0.1737,-0.1736,-0.1735,-0.1794,-0.1798,-0.1749,-0.1749,-0.1749,-0.1749,0,-0.2101,-0.212,-0.213,-0.2097,-0.2085,-0.2088,-0.2041,-0.2046,-0.2048,-0.201,-0.1992,-0.1918,-0.1868,-0.1834,-0.1781,-0.1725,-0.1776,-0.1746,-0.1746,-0.1736,-0.1798,-0.1802,-0.1751,-0.175,-0.175,-0.175,0,0,-0.213,-0.2134,-0.2137,-0.2133,-0.2103,-0.2082,-0.2055,-0.2022,-0.2026,-0.1998,-0.2006,-0.1874,-0.188,-0.1827,-0.1761,-0.1725,-0.1743,-0.174,-0.1739,-0.1813,-0.1797,-0.1801,-0.1806,-0.1735,-0.1734,-0.1734,-0.1864,0,-0.2138,-0.2148,-0.2137,-0.2113,-0.212,-0.21,-0.2074,-0.2041,-0.2038,-0.2039,-0.1967,-0.1944,-0.1857,-0.1862,-0.1801,-0.1762,-0.1748,-0.1715,-0.1782,-0.1784,-0.1799,-0.1806,-0.1553,-0.1644,-0.1868,-0.1869,-0.1869,0,-0.2135,-0.2136,-0.2164,-0.2144,-0.2158,-0.2131,-0.2122,-0.2096,-0.2079,-0.2102,-0.2068,-0.2044,-0.1951,-0.1911,-0.183,-0.1835,-0.1814,-0.1787,-0.1792,-0.178,-0.1792,-0.1677,-0.1642,-0.1876,-0.1875,-0.1875,-0.1874,0,-0.2122,-0.2134,-0.2156,-0.2151,-0.2143,-0.2161,-0.2138,-0.2135,-0.2134,-0.2144,-0.218,-0.2102,-0.2089,-0.2025,-0.1943,-0.1918,-0.1913,-0.1872,-0.1859,-0.1863,-0.1646,-0.163,-0.1831,-0.1831,-0.183,-0.183,-0.183,0,-0.2093,-0.2098,-0.2164,-0.2163,-0.2194,-0.2186,-0.2208,-0.2208,-0.222,-0.2186,-0.2204,-0.2154,-0.212,-0.2099,-0.2017,-0.1963,-0.1971,-0.1868,-0.188,-0.1655,-0.1639,-0.1819,-0.1816,-0.1835,-0.1834,-0.1833,-0.1832,0,-0.2039,-0.2096,-0.2133,-0.2182,-0.2194,-0.222,-0.2225,-0.2197,-0.2264,-0.223,-0.2237,-0.2235,-0.2205,-0.2195,-0.2134,-0.207,-0.2012,-0.1989,-0.1772,-0.1754,-0.197,-0.1966,-0.2014,-0.2015,-0.2016,-0.2016,-0.2017,0,-0.2003,-0.2025,-0.2147,-0.2184,-0.2206,-0.2231,-0.2197,-0.2213,-0.2166,-0.2197,-0.2141,-0.2202,-0.2073,-0.2089,-0.2023,-0.1988,-0.2041,-0.1821,-0.1679,-0.1973,-0.1981,-0.1976,-0.1972,-0.1431,-0.1426,-0.1423,-0.142,0,-0.1907,-0.2,-0.203,-0.211,-0.2117,-0.2105,-0.2063,-0.2047,-0.2015,-0.2018,-0.1917,-0.1847,-0.1853,-0.1696,-0.1789,-0.1712,-0.1813,-0.1753,-0.2082,-0.1431,-0.1434,-0.1439,-0.1451,-0.1388,-0.1392,-0.1394,-0.1396,-0.1397,-0.1837,-0.1857,-0.1909,-0.1965,-0.1985,-0.1908,-0.1833,-0.1783,-0.1704,-0.1617,-0.1628,-0.1482,-0.1445,-0.1399,-0.1386,-0.1496,-0.1593,-0.1538,-0.1543,-0.1553,-0.1469,-0.1472,-0.1424,-0.1427,-0.143,-0.1432,-0.1435,0,-0.1655,-0.167,-0.1716,-0.1744,-0.168,-0.1748,-0.165,-0.1508,-0.1362,-0.1332,-0.1235,-0.0993,-0.0924,-0.101,-0.1057,-0.1111,-0.1036,-0.1147,-0.1,-0.1029,-0.1056,-0.0943,-0.0761,-0.076,-0.076,-0.0759,0,0,-0.1567,-0.1487,-0.1498,-0.1375,-0.1413,-0.1224,-0.115,-0.1017,-0.0951,-0.0792,-0.0749,-0.0733,-0.0799,-0.069,-0.0728,-0.0761,-0.0879,-0.0735,-0.1248,-0.1089,-0.1114,-0.124,-0.1094,0,0,0,0,0]},{"header":{"parameterUnit":"m.s-1","parameterCategory":2,"la1":30.2991,"la2":30.254,"lo1":-89.0895,"lo2":-89.0444,"dy":0.0017,"dx":0.0017,"nx":28,"ny":28,"refTime":"2023-04-01T21:00:00:Z","depth":"2","parameterNumber":3,"parameterNumberName":"V-component_of_CURRENTS"},"data":[0,0,0,0,0,0,0,0,0,0,0,0,0,0,0,0,0,0,0,0,0,0,0,0,0,0,0,0,0,0,0,0,0,0,0,0,0,0,0,0,0,0,0,0,0,0,0,0,0,0,0,0,0,0,0,0,0,0,-0.0289,-0.029,0,-0.0331,-0.0331,-0.0331,-0.0277,-0.0276,-0.0274,-0.0273,-0.0178,-0.0177,-0.0176,0,0,0,0,0,0,0,0,0,0,0,0,0,-0.0311,-0.031,-0.0289,-0.029,-0.0291,-0.0331,-0.0331,-0.0331,-0.0277,-0.0276,-0.0274,-0.0272,-0.0179,-0.0177,-0.0176,0,0,0,0,0,0,0,0,0,0,0,0,0,-0.0317,-0.0309,-0.0289,-0.0273,-0.0273,-0.0331,-0.0331,-0.0331,-0.0278,-0.0275,-0.0273,-0.0271,-0.0179,-0.0177,-0.0176,-0.0208,0,0,-0.017,-0.0169,0,0,0,0,0,0,0,0,-0.0316,-0.0315,-0.0275,-0.0275,-0.0274,-0.0302,-0.0305,-0.0285,-0.0278,-0.027,-0.0273,-0.027,-0.0212,-0.0208,-0.0214,-0.0203,-0.0199,-0.017,-0.0169,-0.0168,-0.0168,0,0,0,0,0,0,0,-0.0316,-0.0314,-0.03,-0.0276,-0.0276,-0.0316,-0.0312,-0.0302,-0.0245,-0.027,-0.0268,-0.0283,-0.021,-0.0216,-0.0211,-0.0198,-0.017,-0.0169,-0.0167,-0.0167,-0.0086,-0.0085,0,0,0,0,0,0,-0.0317,-0.0313,-0.0299,-0.0302,-0.0297,-0.0317,-0.0313,-0.029,-0.0248,-0.0243,-0.0284,-0.028,-0.022,-0.0213,-0.0207,-0.0124,-0.0168,-0.0167,-0.0166,-0.0087,-0.0086,-0.0085,0,0,0,0,0,0,-0.0316,-0.0313,-0.0297,-0.0315,-0.0317,-0.0319,-0.0294,-0.0292,-0.0244,-0.0262,-0.0252,-0.0232,-0.0218,-0.021,-0.0164,-0.0124,-0.0166,-0.0164,-0.0088,-0.0087,-0.0085,-0.0032,0,0,0,0,0,0,-0.0316,-0.0312,-0.0286,-0.0314,-0.0316,-0.0295,-0.0297,-0.0295,-0.0263,-0.0255,-0.0215,-0.0207,-0.0216,-0.0167,-0.0162,-0.0122,-0.0163,-0.009,-0.0088,-0.0086,-0.0036,-0.0029,-0.0024,0,0,0,0,0,-0.0316,-0.0299,-0.0284,-0.0283,-0.0282,-0.0295,-0.0297,-0.0291,-0.0262,-0.0237,-0.0214,-0.0206,-0.015,-0.0165,-0.016,-0.0118,-0.0091,-0.0088,-0.0086,-0.0038,-0.003,-0.0024,0,0,0,0,0,0,-0.0288,-0.0293,-0.0277,-0.0256,-0.0256,-0.0287,-0.0274,-0.0261,-0.0226,-0.0197,-0.0197,-0.0189,-0.0131,-0.0136,-0.0152,-0.009,-0.0117,-0.0113,-0.0082,-0.0075,-0.0069,-0.0095,-0.0161,0,0,0,0,0,-0.0274,-0.0276,-0.0266,-0.0261,-0.0238,-0.024,-0.0239,-0.0224,-0.0213,-0.0192,-0.0169,-0.0144,-0.013,-0.0108,-0.0095,-0.0064,-0.0052,-0.0033,-0.0027,-0.0022,-0.0039,0.0006,0.0015,-0.0076,-0.0076,-0.0077,0,0,-0.0275,-0.028,-0.028,-0.0259,-0.025,-0.0252,-0.0228,-0.0203,-0.0201,-0.0188,-0.0146,-0.0114,-0.0116,-0.0082,-0.0056,-0.0072,0.002,-0.0018,-0.0014,-0.0035,0.001,0.0019,0.0026,-0.0075,-0.0075,-0.0075,0,0,-0.03,-0.0252,-0.0253,-0.0239,-0.0217,-0.0232,-0.0207,-0.0181,-0.014,-0.0107,-0.0097,-0.0048,-0.0018,-0.0021,-0.0021,0.0024,0.0052,0.0052,0.006,0.0106,0.0114,0.012,0.0185,0.0197,0.0052,0.0052,0.0052,0,-0.0297,-0.0294,-0.0258,-0.0246,-0.0241,-0.0215,-0.02,-0.0183,-0.0152,-0.0105,-0.0077,-0.0012,-0.0003,0.0018,0.0026,0.0038,0.0078,0.0035,0.0114,0.0121,0.0127,0.0191,0.0204,0.0055,0.0054,0.0054,0.0054,0,-0.0319,-0.0306,-0.0299,-0.0291,-0.0266,-0.0257,-0.0216,-0.0172,-0.0116,-0.0089,0.0007,0.0026,0.0062,0.0083,0.0061,0.0112,0.0135,0.0122,0.0096,0.0139,0.0205,0.0217,0.0059,0.0058,0.0057,0.0056,0,0,-0.0364,-0.0325,-0.0323,-0.0317,-0.0275,-0.0271,-0.0228,-0.0184,-0.0125,-0.0064,0.002,0.0039,0.0097,0.0097,0.0111,0.014,0.0225,0.0149,0.015,0.0213,0.0359,0.0401,0.0419,0.0241,0.0243,0.0244,0.0402,0,-0.0401,-0.0412,-0.0361,-0.0377,-0.0375,-0.0298,-0.0263,-0.0199,-0.0114,-0.0025,0.0041,0.0114,0.0088,0.0141,0.0163,0.0215,0.0254,0.0184,0.0306,0.0309,0.0341,0.0432,0.0276,0.0406,0.0414,0.0416,0.0418,0,-0.0445,-0.0457,-0.0454,-0.0409,-0.038,-0.0379,-0.0277,-0.023,-0.0095,0.0009,0.0099,0.017,0.0221,0.0207,0.0296,0.0265,0.0304,0.0339,0.0346,0.0364,0.0373,0.0356,0.0428,0.0438,0.0436,0.0435,0.0433,0,-0.0551,-0.0524,-0.0535,-0.0521,-0.0455,-0.0411,-0.0372,-0.0229,-0.0126,0.0024,0.0135,0.0219,0.0295,0.0338,0.0411,0.0368,0.0538,0.0489,0.0563,0.0568,0.0443,0.0434,0.0549,0.0549,0.0548,0.0548,0.0547,0,-0.0647,-0.0653,-0.059,-0.0607,-0.0572,-0.0477,-0.0386,-0.0298,-0.0118,0.0018,0.013,0.0255,0.0333,0.0449,0.0469,0.0582,0.0589,0.0584,0.0615,0.0463,0.0455,0.0466,0.0454,0.0554,0.0552,0.0551,0.055,0,-0.0773,-0.0726,-0.0736,-0.0667,-0.0631,-0.0605,-0.0428,-0.0336,-0.0164,0.002,0.0076,0.03,0.0457,0.0555,0.0675,0.0681,0.0764,0.0796,0.0632,0.064,0.0744,0.0734,0.0887,0.089,0.0892,0.0894,0.0896,0,-0.084,-0.087,-0.0805,-0.0769,-0.0739,-0.0667,-0.0579,-0.0392,-0.0261,0.0047,0.014,0.0366,0.0478,0.0702,0.0767,0.0855,0.0882,0.0822,0.0685,0.0767,0.0781,0.0766,0.0752,0.0555,0.0553,0.0552,0.0552,0,-0.0976,-0.094,-0.0936,-0.089,-0.0814,-0.0691,-0.0561,-0.0466,-0.0202,-0.0055,0.0173,0.027,0.0493,0.0552,0.0731,0.0754,0.079,0.0807,0.0952,0.0498,0.0468,0.0477,0.0472,0.0543,0.0544,0.0544,0.0545,0.0545,-0.105,-0.1071,-0.1045,-0.0988,-0.0862,-0.0689,-0.0623,-0.0476,-0.0295,-0.0084,0.0071,0.019,0.0301,0.0459,0.0578,0.0735,0.0743,0.0726,0.0723,0.0722,0.066,0.0636,0.0732,0.0734,0.0736,0.0737,0.0739,0,-0.1136,-0.1136,-0.1126,-0.1013,-0.0873,-0.0775,-0.0566,-0.0507,-0.0367,-0.0221,-0.0112,0.0009,0.0088,0.0295,0.0458,0.0555,0.0481,0.062,0.047,0.0477,0.0484,0.0404,0.0413,0.0413,0.0413,0.0413,0,0,-0.1164,-0.1203,-0.1202,-0.1026,-0.0909,-0.0724,-0.0603,-0.0544,-0.0442,-0.0347,-0.0255,-0.0229,0.0029,0.0088,0.0213,0.0332,0.0374,0.0333,0.0563,0.0369,0.0375,0.0501,0.0383,0,0,0,0,0]}],[{"header":{"parameterUnit":"m.s-1","parameterCategory":2,"la1":30.2991,"la2":30.254,"lo1":-89.0895,"lo2":-89.0444,"dy":0.0017,"dx":0.0017,"nx":28,"ny":28,"refTime":"2023-04-01T21:00:00:Z","depth":"4","parameterNumber":2,"parameterNumberName":"U-component_of_CURRENTS"},"data":[0,0,0,0,0,0,0,0,0,0,0,0,0,0,0,0,0,0,0,0,0,0,0,0,0,0,0,0,0,0,0,0,0,0,0,0,0,0,0,0,0,0,0,0,0,0,0,0,0,0,0,0,0,0,0,0,0,0,-0.0417,-0.0417,0,-0.043,-0.043,-0.0431,-0.0432,-0.0432,-0.0432,-0.0432,-0.0526,-0.0528,-0.0531,0,0,0,0,0,0,0,0,0,0,0,0,0,-0.0381,-0.0382,-0.0417,-0.0417,-0.0417,-0.043,-0.043,-0.0431,-0.0432,-0.0432,-0.0432,-0.0432,-0.0525,-0.0528,-0.0531,0,0,0,0,0,0,0,0,0,0,0,0,0,-0.0396,-0.0382,-0.0417,-0.0419,-0.042,-0.043,-0.043,-0.0431,-0.0432,-0.0432,-0.0432,-0.0432,-0.0524,-0.0528,-0.0531,-0.0562,0,0,-0.0544,-0.0546,0,0,0,0,0,0,0,0,-0.0396,-0.0398,-0.0419,-0.0419,-0.0419,-0.0429,-0.0452,-0.0478,-0.0432,-0.0428,-0.0432,-0.0431,-0.05,-0.0506,-0.0509,-0.0566,-0.057,-0.0544,-0.0547,-0.0548,-0.0549,0,0,0,0,0,0,0,-0.0394,-0.0397,-0.0423,-0.0419,-0.0419,-0.0415,-0.0417,-0.0457,-0.0468,-0.0429,-0.0429,-0.0429,-0.0501,-0.0505,-0.0512,-0.0572,-0.0544,-0.0548,-0.055,-0.0552,-0.0787,-0.079,0,0,0,0,0,0,-0.0393,-0.0396,-0.0423,-0.0423,-0.0406,-0.0416,-0.0418,-0.0427,-0.0466,-0.047,-0.0429,-0.0429,-0.0499,-0.0507,-0.0515,-0.069,-0.0548,-0.0552,-0.0554,-0.0783,-0.0788,-0.0792,0,0,0,0,0,0,-0.0392,-0.0395,-0.0422,-0.0409,-0.0412,-0.0417,-0.0426,-0.0427,-0.0443,-0.0465,-0.0471,-0.0446,-0.0499,-0.051,-0.0589,-0.0689,-0.0554,-0.0557,-0.0778,-0.0784,-0.079,-0.0953,0,0,0,0,0,0,-0.0391,-0.0395,-0.0403,-0.0409,-0.0413,-0.0425,-0.0426,-0.0427,-0.0443,-0.0443,-0.0482,-0.0489,-0.0499,-0.0583,-0.0593,-0.0692,-0.0561,-0.0774,-0.0781,-0.0788,-0.0943,-0.0964,-0.0982,0,0,0,0,0,-0.039,-0.0396,-0.0403,-0.0406,-0.0423,-0.0425,-0.0426,-0.0429,-0.0444,-0.0445,-0.0504,-0.0488,-0.0636,-0.0589,-0.06,-0.0702,-0.077,-0.0779,-0.0787,-0.0934,-0.096,-0.0981,0,0,0,0,0,0,-0.0376,-0.0397,-0.0405,-0.0415,-0.0419,-0.0424,-0.0425,-0.044,-0.0484,-0.05,-0.0529,-0.0541,-0.0657,-0.0647,-0.0595,-0.0791,-0.0705,-0.0716,-0.0813,-0.0837,-0.0856,-0.0814,-0.0564,0,0,0,0,0,-0.038,-0.0396,-0.0405,-0.0414,-0.0415,-0.0428,-0.0433,-0.0442,-0.0478,-0.0495,-0.0544,-0.0609,-0.0699,-0.0738,-0.0793,-0.0887,-0.0822,-0.0962,-0.0981,-0.0997,-0.0972,-0.104,-0.1063,-0.082,-0.082,-0.082,0,0,-0.0376,-0.039,-0.0398,-0.0413,-0.0417,-0.0432,-0.043,-0.0442,-0.0472,-0.0503,-0.0583,-0.0675,-0.0738,-0.0862,-0.0913,-0.0868,-0.1014,-0.1008,-0.1022,-0.0987,-0.1052,-0.1075,-0.1096,-0.0826,-0.0825,-0.0824,0,0,-0.0369,-0.0388,-0.0395,-0.0399,-0.0412,-0.0438,-0.0447,-0.0482,-0.0506,-0.0606,-0.066,-0.0786,-0.0909,-0.0974,-0.1026,-0.1172,-0.1118,-0.1232,-0.13,-0.137,-0.139,-0.1406,-0.1263,-0.1266,-0.1241,-0.1241,-0.1242,0,-0.0358,-0.0371,-0.0394,-0.0394,-0.0407,-0.0446,-0.0459,-0.0491,-0.0561,-0.059,-0.0647,-0.0891,-0.0954,-0.1102,-0.1197,-0.1214,-0.1193,-0.1213,-0.1394,-0.141,-0.1424,-0.1274,-0.1276,-0.125,-0.1249,-0.1248,-0.1248,0,-0.0351,-0.0359,-0.0358,-0.0392,-0.0421,-0.0427,-0.0481,-0.0519,-0.0607,-0.0664,-0.0838,-0.098,-0.1123,-0.1206,-0.1271,-0.1436,-0.1359,-0.1413,-0.1329,-0.1458,-0.1291,-0.1289,-0.1263,-0.126,-0.1257,-0.1255,0,0,-0.0323,-0.0346,-0.0345,-0.0361,-0.0415,-0.0443,-0.0492,-0.0548,-0.0588,-0.0748,-0.0848,-0.1094,-0.1211,-0.1277,-0.14,-0.1494,-0.1585,-0.1539,-0.1539,-0.1379,-0.1619,-0.1504,-0.1487,-0.173,-0.1733,-0.1736,-0.1426,0,-0.0301,-0.0307,-0.0338,-0.0375,-0.039,-0.0435,-0.0489,-0.0557,-0.065,-0.0757,-0.093,-0.111,-0.1226,-0.1381,-0.1498,-0.1611,-0.1607,-0.1653,-0.1529,-0.1519,-0.1395,-0.1494,-0.1746,-0.1424,-0.1423,-0.1423,-0.1422,0,-0.028,-0.0295,-0.0313,-0.0373,-0.0385,-0.0427,-0.0513,-0.0578,-0.0694,-0.0779,-0.0968,-0.112,-0.1335,-0.1429,-0.1579,-0.1637,-0.1623,-0.165,-0.1641,-0.1474,-0.1408,-0.1292,-0.1417,-0.1418,-0.1418,-0.1419,-0.1419,0,-0.0258,-0.0283,-0.0309,-0.0319,-0.0394,-0.0414,-0.0489,-0.0585,-0.0637,-0.0828,-0.0909,-0.1152,-0.1304,-0.1428,-0.1492,-0.1604,-0.154,-0.1671,-0.1462,-0.1442,-0.1557,-0.1543,-0.1665,-0.1666,-0.1666,-0.1667,-0.1668,0,-0.0223,-0.0238,-0.0295,-0.0294,-0.0347,-0.0435,-0.051,-0.0568,-0.0691,-0.0741,-0.0972,-0.1032,-0.1349,-0.1358,-0.143,-0.1391,-0.146,-0.1444,-0.1404,-0.1616,-0.1614,-0.1546,-0.1537,-0.1655,-0.1658,-0.166,-0.1662,0,-0.0192,-0.0213,-0.0238,-0.0301,-0.0327,-0.039,-0.05,-0.054,-0.0668,-0.0736,-0.0822,-0.0971,-0.1043,-0.1131,-0.1227,-0.1256,-0.1249,-0.1146,-0.1164,-0.1131,-0.1103,-0.1106,-0.1004,-0.0998,-0.0994,-0.099,-0.0987,0,-0.0176,-0.0183,-0.0231,-0.0248,-0.027,-0.0367,-0.0406,-0.0528,-0.055,-0.0639,-0.0638,-0.0731,-0.0819,-0.0767,-0.0925,-0.0926,-0.0943,-0.0859,-0.1221,-0.1088,-0.1058,-0.1068,-0.1077,-0.0979,-0.0978,-0.0977,-0.0975,0,-0.016,-0.0171,-0.0195,-0.0207,-0.0236,-0.0288,-0.0339,-0.0344,-0.045,-0.0527,-0.0491,-0.0566,-0.0554,-0.0693,-0.0621,-0.065,-0.0963,-0.0814,-0.0831,-0.1171,-0.1056,-0.1034,-0.1048,-0.0959,-0.0961,-0.0963,-0.0964,0,-0.0158,-0.0166,-0.0179,-0.0196,-0.0213,-0.0207,-0.0251,-0.0258,-0.0307,-0.0378,-0.0307,-0.0389,-0.0457,-0.052,-0.0459,-0.0505,-0.0643,-0.0721,-0.0747,-0.0766,-0.0871,-0.0701,-0.0443,0,0,0,0,0,-0.0171,-0.0168,-0.0167,-0.0169,-0.0165,-0.0163,-0.0196,-0.0235,-0.0272,-0.022,-0.0285,-0.0268,-0.0334,-0.0363,-0.0399,-0.045,-0.0659,-0.0494,-0.0764,-0.0868,-0.0887,-0.1054,0,0,0,0,0,0,-0.0179,-0.0183,-0.0166,-0.0141,-0.0113,-0.0105,-0.0117,-0.0134,-0.0126,-0.0163,-0.0192,-0.0245,-0.0307,-0.0289,-0.0379,-0.0398,-0.0571,-0.0539,-0.0539,-0.0858,-0.0875,-0.089,-0.1068,0,0,0,0,0]},{"header":{"parameterUnit":"m.s-1","parameterCategory":2,"la1":30.2991,"la2":30.254,"lo1":-89.0895,"lo2":-89.0444,"dy":0.0017,"dx":0.0017,"nx":28,"ny":28,"refTime":"2023-04-01T21:00:00:Z","depth":"4","parameterNumber":3,"parameterNumberName":"V-component_of_CURRENTS"},"data":[0,0,0,0,0,0,0,0,0,0,0,0,0,0,0,0,0,0,0,0,0,0,0,0,0,0,0,0,0,0,0,0,0,0,0,0,0,0,0,0,0,0,0,0,0,0,0,0,0,0,0,0,0,0,0,0,0,0,-0.0615,-0.0615,0,-0.0684,-0.0685,-0.0686,-0.0696,-0.0695,-0.0695,-0.0694,-0.0785,-0.0788,-0.0791,0,0,0,0,0,0,0,0,0,0,0,0,0,-0.0542,-0.0544,-0.0615,-0.0615,-0.0616,-0.0684,-0.0685,-0.0686,-0.0696,-0.0695,-0.0694,-0.0693,-0.0784,-0.0787,-0.0791,0,0,0,0,0,0,0,0,0,0,0,0,0,-0.0591,-0.0544,-0.0615,-0.0628,-0.0629,-0.0684,-0.0685,-0.0687,-0.0697,-0.0695,-0.0694,-0.0693,-0.0782,-0.0787,-0.0792,-0.0846,0,0,-0.0806,-0.0808,0,0,0,0,0,0,0,0,-0.0588,-0.0594,-0.0625,-0.0627,-0.0629,-0.0679,-0.0693,-0.074,-0.0697,-0.0673,-0.0694,-0.0692,-0.0751,-0.0758,-0.0776,-0.085,-0.0854,-0.0807,-0.081,-0.0812,-0.0813,0,0,0,0,0,0,0,-0.0585,-0.0591,-0.0644,-0.0626,-0.0628,-0.0648,-0.0653,-0.0702,-0.072,-0.0675,-0.0676,-0.0681,-0.0752,-0.0772,-0.0779,-0.0855,-0.0807,-0.0811,-0.0814,-0.0816,-0.0999,-0.1001,0,0,0,0,0,0,-0.0571,-0.0588,-0.0642,-0.0646,-0.0603,-0.065,-0.0656,-0.0665,-0.0719,-0.0725,-0.0682,-0.0681,-0.0764,-0.0773,-0.0782,-0.086,-0.0812,-0.0816,-0.0819,-0.0997,-0.1,-0.1002,0,0,0,0,0,0,-0.0569,-0.0575,-0.0639,-0.0616,-0.0626,-0.0652,-0.0663,-0.0667,-0.0703,-0.0723,-0.073,-0.0713,-0.0764,-0.0775,-0.0847,-0.0863,-0.0818,-0.0823,-0.0995,-0.0998,-0.1001,-0.101,0,0,0,0,0,0,-0.0567,-0.0575,-0.0591,-0.0616,-0.0626,-0.0683,-0.0664,-0.067,-0.0705,-0.0706,-0.0753,-0.0759,-0.0764,-0.084,-0.0852,-0.0869,-0.0826,-0.0992,-0.0996,-0.1,-0.1007,-0.1013,-0.1018,0,0,0,0,0,-0.0564,-0.0587,-0.0591,-0.0598,-0.0643,-0.0684,-0.0693,-0.0708,-0.0708,-0.0734,-0.0769,-0.0758,-0.0871,-0.0847,-0.086,-0.0878,-0.099,-0.0995,-0.1,-0.1004,-0.1011,-0.1017,0,0,0,0,0,0,-0.0568,-0.0591,-0.0596,-0.0626,-0.0657,-0.0685,-0.0713,-0.0725,-0.0775,-0.0785,-0.0797,-0.0807,-0.0881,-0.0888,-0.086,-0.0944,-0.0925,-0.0932,-0.0924,-0.0931,-0.0936,-0.0916,-0.083,0,0,0,0,0,-0.0575,-0.0598,-0.0623,-0.0652,-0.0668,-0.0698,-0.0721,-0.0739,-0.0777,-0.0797,-0.0841,-0.0878,-0.091,-0.0926,-0.0977,-0.1025,-0.0987,-0.1044,-0.1049,-0.1054,-0.1049,-0.099,-0.0987,-0.1017,-0.1017,-0.1017,0,0,-0.0585,-0.0601,-0.0615,-0.0655,-0.0681,-0.0727,-0.071,-0.076,-0.08,-0.0803,-0.0893,-0.0922,-0.0936,-0.0992,-0.1021,-0.0994,-0.1031,-0.1059,-0.1062,-0.1055,-0.0994,-0.099,-0.0987,-0.102,-0.1019,-0.1019,0,0,-0.0613,-0.0632,-0.066,-0.0688,-0.0734,-0.0766,-0.0785,-0.0843,-0.0866,-0.0956,-0.0953,-0.0995,-0.1075,-0.1067,-0.107,-0.1142,-0.1079,-0.1152,-0.114,-0.1083,-0.1079,-0.1074,-0.103,-0.1021,-0.1131,-0.1131,-0.1131,0,-0.0622,-0.0656,-0.0678,-0.0713,-0.0742,-0.0786,-0.0831,-0.0871,-0.0953,-0.0971,-0.0996,-0.1088,-0.1109,-0.1114,-0.1123,-0.1152,-0.1098,-0.1106,-0.1084,-0.1079,-0.1074,-0.1029,-0.1019,-0.1132,-0.1132,-0.1132,-0.1132,0,-0.0662,-0.0699,-0.0721,-0.078,-0.0826,-0.0872,-0.0924,-0.0982,-0.1036,-0.1069,-0.1132,-0.1164,-0.1195,-0.1205,-0.1181,-0.1152,-0.112,-0.1109,-0.1052,-0.107,-0.1024,-0.1013,-0.1133,-0.1133,-0.1133,-0.1132,0,0,-0.0652,-0.0729,-0.0738,-0.077,-0.0859,-0.0898,-0.0974,-0.1035,-0.1061,-0.1155,-0.119,-0.1231,-0.1233,-0.1234,-0.1209,-0.1148,-0.1074,-0.1093,-0.109,-0.1023,-0.093,-0.0857,-0.0838,-0.1026,-0.1025,-0.1023,-0.0913,0,-0.0673,-0.0737,-0.078,-0.0865,-0.0906,-0.0963,-0.1017,-0.1082,-0.1142,-0.12,-0.1216,-0.1266,-0.1242,-0.1246,-0.1184,-0.1108,-0.1045,-0.1105,-0.0946,-0.0942,-0.0852,-0.0823,-0.1018,-0.0904,-0.0902,-0.09,-0.0899,0,-0.0695,-0.0733,-0.0808,-0.0883,-0.0904,-0.097,-0.1048,-0.1109,-0.1177,-0.1212,-0.1251,-0.1275,-0.1238,-0.1225,-0.1079,-0.1102,-0.1015,-0.0954,-0.0947,-0.0864,-0.0848,-0.0885,-0.0879,-0.0881,-0.0882,-0.0884,-0.0885,0,-0.0666,-0.0753,-0.0811,-0.0839,-0.0938,-0.0976,-0.1044,-0.1118,-0.1142,-0.1232,-0.1253,-0.1244,-0.123,-0.1132,-0.1018,-0.1026,-0.0847,-0.0855,-0.0718,-0.0713,-0.0807,-0.0812,-0.0749,-0.0749,-0.0749,-0.0749,-0.075,0,-0.0665,-0.0711,-0.0803,-0.0827,-0.0882,-0.0973,-0.1036,-0.1084,-0.1152,-0.1159,-0.1252,-0.1221,-0.119,-0.1101,-0.1006,-0.0814,-0.0835,-0.0701,-0.0666,-0.0819,-0.0828,-0.0799,-0.0806,-0.0745,-0.0746,-0.0747,-0.0748,0,-0.0644,-0.0698,-0.0754,-0.0843,-0.0872,-0.0924,-0.1019,-0.104,-0.1121,-0.1133,-0.1158,-0.117,-0.1051,-0.101,-0.0848,-0.0772,-0.0633,-0.0566,-0.0736,-0.0717,-0.0545,-0.0555,-0.0401,-0.0397,-0.0394,-0.0391,-0.0389,0,-0.0641,-0.0672,-0.0747,-0.0768,-0.0816,-0.0901,-0.0929,-0.1016,-0.1016,-0.1056,-0.1018,-0.098,-0.0965,-0.0726,-0.067,-0.0528,-0.0503,-0.0451,-0.0496,-0.052,-0.0503,-0.0518,-0.0532,-0.0384,-0.0383,-0.0382,-0.0381,0,-0.0632,-0.066,-0.0695,-0.0732,-0.0767,-0.0813,-0.0855,-0.0845,-0.0911,-0.0946,-0.088,-0.0846,-0.0723,-0.0639,-0.0549,-0.0437,-0.0502,-0.0417,-0.0424,-0.0466,-0.0498,-0.0488,-0.0505,-0.037,-0.0372,-0.0373,-0.0373,0,-0.0613,-0.0627,-0.0668,-0.0701,-0.0728,-0.0742,-0.0776,-0.0766,-0.0783,-0.0802,-0.074,-0.0724,-0.0702,-0.0581,-0.0469,-0.0392,-0.0367,-0.0348,-0.0358,-0.037,-0.0404,-0.0443,-0.0245,0,0,0,0,0,-0.0608,-0.0623,-0.064,-0.0674,-0.0693,-0.072,-0.0724,-0.0749,-0.0759,-0.0683,-0.073,-0.0626,-0.0524,-0.0493,-0.0394,-0.04,-0.0354,-0.0278,-0.0339,-0.0308,-0.0321,-0.036,0,0,0,0,0,0,-0.06,-0.0623,-0.0632,-0.0654,-0.0672,-0.0698,-0.0704,-0.0708,-0.0669,-0.0671,-0.0616,-0.0587,-0.0488,-0.0589,-0.0395,-0.0371,-0.0388,-0.0233,-0.023,-0.0301,-0.0313,-0.0323,-0.0368,0,0,0,0,0]}]]